Jack Miller

Chefscout - Reading
4 Apr 2027
Sonntag
Verarbeitung

Persönlichkeit

Anpassungsfähigkeit (6) Ehrgeiz (12) Kontroverse (12) Loyalität (4) Druck (8) Professionalität (1) Fairness (1) Temperament (7)

Profil

Trainerstil Demokratisch
Lizenz Nationale A
Entschlossenheit 8
Menschenführung 6
Motivation 12
Disziplin 10
Arbeitszufriedenheit
97%
Ermüdung
0%
Rolle Chefscout
Gehalt 27.6K p/W
Vertrag 14.03.2029

Leistung

Verhalten Gut
Trainingseffektivität
30%
Spielerentwicklung
35%
Verletzungsprävention
55%
Taktische Umsetzung
20%

Letzte Ereignisse

Spieler begutachtet jetzt
Spieler begutachtet jetzt
Nahm an einer Scouting-Besprechung teil jetzt
Empfahl ein Transferziel jetzt
Empfahl ein Transferziel jetzt
Spieler begutachtet jetzt
Spieler begutachtet jetzt
Spieler begutachtet jetzt

Aktuell beobachtet

254
Spieler Verein Status Fähigkeit Vertrauen Beobachtet Zuletzt beobachtet Letzte Stimme
Luther Zwane Platinum Stars Aktiv 98 / 118 40% 6 03.04.2027 -
Harry Cornick AFC Wimbledon Aktiv 111 / 109 40% 3 03.04.2027 -
Andile Zungu Platinum Stars Aktiv 111 / 123 40% 5 03.04.2027 -
Cauley Woodrow Luton Town Aktiv 107 / 99 40% 2 03.04.2027 -
Jack Currie Oxford United Aktiv 121 / 121 40% 1 03.04.2027 -
Idris Kanu Barnet Aktiv 101 / 93 40% 1 03.04.2027 -
Rui Costa Port Vale Aktiv 109 / 102 40% 6 01.04.2027 -
Claudio Morra Vicenza Aktiv 110 / 97 40% 2 01.04.2027 -
Themba Manyama Ajax Cape Town Aktiv 111 / 108 40% 9 31.03.2027 -
Sinoxolo Kwayiba Chippa United Aktiv 115 / 105 40% 4 31.03.2027 -
Matty Stevens AFC Wimbledon Aktiv 106 / 108 40% 7 31.03.2027 -
Mésaque Djú Portimonense Aktiv 101 / 110 40% 2 31.03.2027 -
Ronaldo Maarman University of Pretoria Aktiv 113 / 94 40% 1 31.03.2027 -
Edarlyn Reyes Arsenal Tula Aktiv 101 / 93 40% 7 29.03.2027 -
Jerome Karelse Golden Arrows Aktiv 95 / 89 40% 5 29.03.2027 -
Brandon Hanlan Doncaster Rovers Aktiv 100 / 92 40% 5 29.03.2027 -
Alessio Nepi Perugia Aktiv 102 / 108 40% 1 29.03.2027 -
Migran Ageyan Ufa Aktiv 93 / 86 40% 1 29.03.2027 -
Kane Drummond Oldham Athletic Aktiv 97 / 103 40% 1 29.03.2027 -
Leandro Martins Benfica Aktiv 87 / 96 40% 1 28.03.2027 -
Sergey Chernov Zenit Aktiv 83 / 82 40% 1 28.03.2027 -
Alexandr Yushin Torpedo Moscow Aktiv 105 / 105 40% 8 26.03.2027 -
Amur Kalmykov Spartak Kostroma Aktiv 108 / 112 40% 4 26.03.2027 -
Sam Nombe Milton Keynes Dons Aktiv 106 / 95 40% 8 25.03.2027 -
Connor Barrett Walsall Aktiv 102 / 100 40% 1 25.03.2027 -
Taylor Richards Northampton Town Aktiv 105 / 112 40% 1 25.03.2027 -
Lee Bonis Oxford United Aktiv 96 / 98 40% 1 25.03.2027 -
Martín Álvarez Barnsley Aktiv 105 / 118 40% 2 24.03.2027 -
Jonathan Okoronkwo Torpedo Moscow Aktiv 109 / 111 40% 1 24.03.2027 -
Marcus Browne AFC Wimbledon Aktiv 111 / 110 40% 7 22.03.2027 -
Harry Smith Barnet Aktiv 99 / 108 40% 4 22.03.2027 -
Fábio Tavares Newport County Aktiv 105 / 85 40% 6 21.03.2027 -
Lebogang Erasmus Platinum Stars Aktiv 119 / 119 40% 4 21.03.2027 -
Kwame Opoku Asante Kotoko Aktiv 90 / 88 40% 9 21.03.2027 -
Jack Vale Alcione Milano Aktiv 95 / 95 40% 1 21.03.2027 -
Federico Di Francesco Catanzaro Aktiv 117 / 104 40% 1 21.03.2027 -
Celso Sidney Cherno More Aktiv 103 / 118 40% 2 20.03.2027 -
Luke Baartman Chippa United Aktiv 95 / 101 40% 3 20.03.2027 -
Chris Ramos Botafogo Aktiv 135 / 109 40% 2 20.03.2027 -
Vladimir Nikolov Slavia Sofia Aktiv 106 / 110 40% 2 18.03.2027 -
Fabio Abiuso Carrarese Aktiv 113 / 114 40% 1 18.03.2027 -
Aaron Drinan Swindon Town Aktiv 105 / 98 40% 4 17.03.2027 -
Papa Ndiaga Yade Oleksandriya Aktiv 113 / 108 40% 3 14.03.2027 -
Mohamed Mallahi Pro Vercelli Aktiv 102 / 114 40% 1 14.03.2027 -
Bradley Mothiba SuperSport United Aktiv 113 / 91 40% 5 13.03.2027 -
Erick Ngcobo Black Aces Aktiv 97 / 96 40% 5 13.03.2027 -
Hakeeb Adelakun Doncaster Rovers Aktiv 98 / 98 40% 2 12.03.2027 -
Itumeleng Manyama Free State Stars Aktiv 93 / 94 40% 3 11.03.2027 -
Simon Ramabu Polokwane City Aktiv 117 / 101 40% 1 11.03.2027 -
Felix Kudus Hasaacas Aktiv 97 / 92 40% 4 10.03.2027 -
Jonathan Sulemana BA All Stars Aktiv 112 / 109 40% 4 08.03.2027 -
Ilja Safronov Rotor Aktiv 97 / 104 40% 2 08.03.2027 -
Brian Figueroa Morelia Aktiv 110 / 104 40% 1 08.03.2027 -
Tommaso Biasci Avellino Aktiv 125 / 107 40% 1 06.03.2027 -
Luphumlo Sifumba Maritzburg United Aktiv 89 / 115 40% 1 06.03.2027 -
Gastón Novero Notts County Aktiv 102 / 107 40% 1 06.03.2027 -
Martin Sekulić Ural Aktiv 118 / 102 40% 3 04.03.2027 -
Frédéric Maciel CSKA 1948 Aktiv 123 / 97 40% 3 04.03.2027 -
Darío Poveda Nea Salamis Aktiv 104 / 104 40% 2 04.03.2027 -
Mohamed Konaté Akhmat Grozny Aktiv 109 / 108 40% 1 03.03.2027 -
Juan Cejas Ethnikos Achnas Aktiv 115 / 114 40% 1 03.03.2027 -
Giuseppe Panico Foggia Aktiv 119 / 107 40% 1 02.03.2027 -
Duncan Watmore Rotherham United Aktiv 117 / 117 40% 1 26.02.2027 -
Leandro Godoy CSKA Sofia Aktiv 112 / 137 40% 1 26.02.2027 -
Samuel Tetteh Wa All Stars Aktiv 92 / 93 40% 2 25.02.2027 -
Ioannis Pittas CSKA Sofia Aktiv 129 / 113 40% 1 25.02.2027 -
Danyil Alefirenko Chornomorets Aktiv 107 / 97 40% 1 24.02.2027 -
Miro Dinamo Makhachkala Aktiv 104 / 122 40% 1 23.02.2027 -
Santiago Fernández Talleres Aktiv 118 / 141 40% 2 22.02.2027 -
Shayne Lavery Cambridge United Aktiv 113 / 106 40% 3 22.02.2027 -
Tedi Cara LNZ Aktiv 114 / 108 40% 1 22.02.2027 -
Isaac Moore Lokeren Aktiv 86 / 92 40% 1 22.02.2027 -
Alex Rolfini Carpi Aktiv 109 / 114 40% 1 18.02.2027 -
Luke Molyneux Doncaster Rovers Aktiv 119 / 120 40% 2 17.02.2027 -
Cedric Gondo Reggiana Aktiv 116 / 127 40% 1 17.02.2027 -
Peter Itodo Metalist Aktiv 122 / 128 40% 2 15.02.2027 -
Thulani Phiri Platinum Stars Aktiv 108 / 98 40% 1 14.02.2027 -
Charlie Webster Burton Albion Aktiv 105 / 101 40% 1 14.02.2027 -
Samuel Adegbenro Dynamo Kyiv Aktiv 111 / 130 40% 11 12.02.2027 -
Goodman Mosele Chippa United Aktiv 109 / 105 40% 1 12.02.2027 -
Kyreece Lisbie Colchester United Aktiv 107 / 122 40% 1 12.02.2027 -
Gift Mokoena Free State Stars Aktiv 112 / 124 40% 6 11.02.2027 -
Reeve Frosler Kaizer Chiefs Aktiv 99 / 117 40% 3 11.02.2027 -
Dmitry Tsypchenko Torpedo Moscow Aktiv 100 / 107 40% 1 09.02.2027 -
Yurii Klymchuk Kolos Aktiv 110 / 96 40% 1 09.02.2027 -
Maksym Voitikhovskyi Bukovyna Aktiv 91 / 108 40% 1 07.02.2027 -
Alimi Sikiru JS Saoura Aktiv 113 / 86 40% 1 06.02.2027 -
Azola Matrose Chippa United Aktiv 104 / 116 40% 1 06.02.2027 -
Vitalii Dakhnovskyi Bukovyna Aktiv 107 / 96 40% 1 06.02.2027 -
Thulani Mabaso Platinum Stars Aktiv 94 / 106 40% 5 05.02.2027 -
Richard Boadu Aduana Stars Aktiv 92 / 92 40% 1 05.02.2027 -
Pavel Meleshin Sochi Aktiv 115 / 109 40% 2 04.02.2027 -
François Kamano Sochi Aktiv 119 / 103 40% 3 02.02.2027 -
Zakaria Naïdji MC Alger Aktiv 106 / 103 40% 1 02.02.2027 -
Achraf Bencharki Al Ahly Aktiv 118 / 144 40% 7 01.02.2027 -
Dillon Hoogewerf ES Mostaganem Aktiv 93 / 85 40% 2 01.02.2027 -
Vyacheslav Grulev Nizhniy Novgorod Aktiv 123 / 125 40% 1 01.02.2027 -
Tlou Nkwe Polokwane City Aktiv 98 / 85 40% 1 01.02.2027 -
Artem Slesar Zorya Aktiv 105 / 105 40% 1 01.02.2027 -
Jakub Adkonis Lechia Aktiv 88 / 102 40% 1 31.01.2027 -
Maldini Kacurri Grimsby Town Aktiv 91 / 98 40% 1 31.01.2027 -
Sabil Hansen Randers Aktiv 102 / 105 40% 1 31.01.2027 -
Simphiwe Selepe Orlando Pirates Aktiv 103 / 104 40% 4 28.01.2027 -
Bernardo Lima Porto Aktiv 101 / 104 40% 1 28.01.2027 -
Ramadan Mohsen Zamalek Aktiv 112 / 109 40% 1 28.01.2027 -
Gilson Benchimol Akron Aktiv 105 / 108 40% 2 27.01.2027 -
John Okoye Ebuka Ittihad Aktiv 114 / 112 40% 4 25.01.2027 -
Facundo Suárez Instituto Aktiv 113 / 105 40% 6 24.01.2027 -
Carlos Paraco Metalist Aktiv 121 / 118 40% 2 23.01.2027 -
Jorge Padilla Cherno More Aktiv 103 / 95 40% 2 22.01.2027 -
Stephen Humphrys Bradford City Abgelehnt 108 / 118 40% 2 22.01.2027 Mehr Infos nötig
Mykola Haiduchyk Polissia Aktiv 106 / 128 40% 1 22.01.2027 -
Luca Barani Forli Aktiv 85 / 87 40% 1 17.01.2027 -
Paul Yeboah Medeama Aktiv 75 / 61 40% 2 12.01.2027 -
Samuel Lucero Defensa y Justicia Aktiv 121 / 104 40% 2 12.01.2027 -
Juan Pablo De la Reta Maipú Aktiv 103 / 102 40% 1 12.01.2027 -
Riccardo De Zen Renate Aktiv 99 / 94 40% 1 11.01.2027 -
Mpho Khethang AS Police Aktiv 89 / 96 40% 1 10.01.2027 -
Manqoba Mlele AS Police Aktiv 90 / 91 40% 1 06.01.2027 -
Fernand Gouré Westerlo Aktiv 110 / 100 40% 1 05.01.2027 -
Calum Kavanagh Oldham Athletic Aktiv 93 / 93 40% 1 04.01.2027 -
Lucas Passerini Belgrano Aktiv 130 / 139 40% 4 30.12.2026 -
Makabi Lilepo Kaizer Chiefs Aktiv 110 / 90 40% 3 29.12.2026 -
Róbert Polievka MTK Budapest Aktiv 120 / 107 40% 2 29.12.2026 -
Barna Tóth Paksi Aktiv 106 / 108 40% 1 27.12.2026 -
Dániel Lukács Puskas Akademia Aktiv 112 / 123 40% 2 25.12.2026 -
Patrick Djiku WAFA Aktiv 97 / 113 40% 1 25.12.2026 -
Jordan Roberts Stevenage Aktiv 117 / 100 40% 2 23.12.2026 -
Braian Álvarez Arsenal Tula Aktiv 98 / 83 40% 1 21.12.2026 -
Gift Mothiba Black Aces Aktiv 89 / 104 40% 2 20.12.2026 -
Brooklyn Poggenpoel Maritzburg United Aktiv 111 / 114 40% 1 18.12.2026 -
Siyanda Msani University of Pretoria Aktiv 92 / 114 40% 2 17.12.2026 -
Ali Soliman Masr El Makasa Aktiv 136 / 119 40% 3 17.12.2026 -
Sergio Santos Atlanta United FC Aktiv 113 / 118 40% 10 15.12.2026 -
Amos Inusah Wa All Stars Aktiv 121 / 134 40% 2 14.12.2026 -
Patrik Iľko MSK Zilina Aktiv 113 / 100 40% 1 14.12.2026 -
Hlompho Modiba Black Aces Aktiv 84 / 78 40% 1 14.12.2026 -
Yanela Mbuthuma Orlando Pirates Aktiv 111 / 96 40% 6 12.12.2026 -
Assad Al Hamlawi Universitatea Craiova Aktiv 131 / 111 40% 3 09.12.2026 -
Lukáš Juliš MSK Zilina Aktiv 120 / 95 40% 1 09.12.2026 -
Iuri Tavares NK Varazdin Aktiv 104 / 129 40% 2 07.12.2026 -
Tomás Molina Argentinos Juniors Aktiv 136 / 116 40% 7 06.12.2026 -
Diego Valencia Gornik Leczna Aktiv 106 / 98 40% 1 06.12.2026 -
Brian White Vancouver Whitecaps Aktiv 116 / 119 40% 6 05.12.2026 -
Yevhen Pidlepenets Bukovyna Aktiv 116 / 110 40% 1 05.12.2026 -
Aaron Collins Milton Keynes Dons Aktiv 109 / 129 40% 1 05.12.2026 -
Mariusz Stępiński Korona Aktiv 126 / 95 40% 1 05.12.2026 -
Lebo Mothiba Mamelodi Sundowns Aktiv 119 / 103 40% 2 04.12.2026 -
Preston Judd San Jose Earthquakes Aktiv 109 / 110 40% 3 04.12.2026 -
Nardin Mulahusejnović Vojvodina Aktiv 121 / 103 40% 2 01.12.2026 -
Lazar Mijović Cukaricki Aktiv 99 / 122 40% 1 01.12.2026 -
Rivaldo Ngcobo Free State Stars Aktiv 95 / 111 40% 5 30.11.2026 -
Jack Aitchison Grodig Aktiv 94 / 89 40% 1 29.11.2026 -
Happy Mashiane Bidvest Wits Aktiv 95 / 85 40% 1 27.11.2026 -
Tiago Freitas Benfica Aktiv 103 / 105 40% 1 26.11.2026 -
Enzo Cardozo Almirante Brown Aktiv 96 / 108 40% 1 26.11.2026 -
Emiliano Marcondes OB Aktiv 99 / 113 40% 5 23.11.2026 -
Ciprian Coman Pandurii Aktiv 125 / 109 40% 4 22.11.2026 -
Facundo Castro Nueva Chicago Aktiv 119 / 117 40% 2 22.11.2026 -
Ştefan Baiaram Universitatea Craiova Aktiv 113 / 113 40% 3 21.11.2026 -
Alibek Aliev CFR Cluj Aktiv 107 / 116 40% 1 21.11.2026 -
Mohamed Ofkir Valerenga Aktiv 105 / 127 40% 1 20.11.2026 -
Zvonimir Boric Zadar Aktiv 112 / 111 40% 1 19.11.2026 -
Jerónimo Porto Lapegüe Slask Aktiv 104 / 115 40% 1 18.11.2026 -
Lebogang Zwane Black Aces Aktiv 107 / 119 40% 2 17.11.2026 -
Stefan Vukić Rudes Aktiv 96 / 108 40% 1 16.11.2026 -
Razvan Puscas Astra Aktiv 126 / 97 40% 1 14.11.2026 -
Darren Yapi Colorado Rapids Aktiv 109 / 112 40% 3 13.11.2026 -
Franco Fagúndez Estudiantes Aktiv 124 / 124 40% 6 10.11.2026 -
Simon Becher St. Louis CITY SC Aktiv 107 / 109 40% 2 10.11.2026 -
Archie Goodwin Charlotte Football Club Aktiv 113 / 108 40% 3 10.11.2026 -
Rodin Quiñónes Dinamo Batumi Aktiv 102 / 98 40% 3 08.11.2026 -
Jack Lynn San Jose Earthquakes Aktiv 111 / 91 40% 1 08.11.2026 -
Ezekiel Edidiong Enyimba Aktiv 90 / 97 40% 1 08.11.2026 -
Álex Arce Independiente Rivadavia Aktiv 124 / 131 40% 1 08.11.2026 -
Marcelo Torres Gimnasia La Plata Aktiv 115 / 124 40% 2 07.11.2026 -
Josephat Lopaga Kakamega Homeboyz Aktiv 99 / 88 40% 1 05.11.2026 -
Corey Baird CF Montreal Aktiv 109 / 118 40% 2 03.11.2026 -
Rodrigo Bogarín Barracas Central Aktiv 118 / 132 40% 2 03.11.2026 -
Octavio Bianchi HNK Vukovar 1991 Aktiv 106 / 100 40% 3 02.11.2026 -
Agustín Hausch Defensa y Justicia Aktiv 128 / 111 40% 1 02.11.2026 -
Mauricio Asenjo Los Andes Aktiv 111 / 96 40% 4 31.10.2026 -
Robert Petkovic Zadar Aktiv 127 / 110 40% 1 31.10.2026 -
Chico Banza Zamalek Aktiv 110 / 109 40% 1 29.10.2026 -
Sebastian Soto ES Ben Aknoun Aktiv 96 / 94 40% 1 29.10.2026 -
Frederik Ihler IF Elfsborg Aktiv 118 / 121 40% 1 29.10.2026 -
Justin Che New York Red Bulls Aktiv 107 / 124 40% 2 23.10.2026 -
David Barbona Defensa y Justicia Aktiv 133 / 133 40% 2 23.10.2026 -
Thabiso Monyane Kaizer Chiefs Aktiv 107 / 125 40% 3 23.10.2026 -
Fawaaz Basadien Mamelodi Sundowns Aktiv 106 / 128 40% 1 21.10.2026 -
Gabriel Obredor Deportivo Riestra Aktiv 125 / 119 40% 1 21.10.2026 -
Matthew Hoppe SonderjyskE Aktiv 120 / 104 40% 1 16.10.2026 -
Sergio Oregel Chicago Fire Aktiv 104 / 109 40% 1 16.10.2026 -
Leonardo Barroso Chicago Fire Aktiv 104 / 122 40% 1 16.10.2026 -
Ousséni Bouda San Jose Earthquakes Aktiv 109 / 107 40% 4 14.10.2026 -
George Lloyd Grodig Aktiv 84 / 82 40% 1 14.10.2026 -
Prince Ukachukwu Kano Pillars Aktiv 108 / 116 40% 1 12.10.2026 -
Ezequiel Almirón Estudiantes Aktiv 119 / 99 40% 2 10.10.2026 -
Enzo Avaro Mitre Aktiv 105 / 121 40% 1 10.10.2026 -
Enock Morrison Gor Mahia Aktiv 100 / 96 40% 1 09.10.2026 -
Alejandro Melo Temperley Aktiv 122 / 97 40% 2 06.10.2026 -
Leandro Suhr Boston River Aktiv 108 / 123 40% 2 05.10.2026 -
Keagan Manyama Ajax Cape Town Aktiv 103 / 111 40% 1 05.10.2026 -
Aljoša Matko Ujpest Aktiv 125 / 114 40% 1 05.10.2026 -
Victor Mbaoma Tusker Aktiv 97 / 99 40% 1 05.10.2026 -
Bruno Damiani Philadelphia Union Aktiv 111 / 106 40% 3 03.10.2026 -
Ibrahim Aliyu Houston Dynamo Aktiv 125 / 116 40% 4 30.09.2026 -
Edwar López Deportes Tolima Aktiv 120 / 127 40% 3 30.09.2026 -
Michael Vadulli Audax Italiano Aktiv 115 / 119 40% 1 28.09.2026 -
Facundo Pons San Martín Aktiv 117 / 102 40% 1 28.09.2026 -
Justo Giani Universidad Catolica Aktiv 128 / 123 40% 1 27.09.2026 -
Luciano Cosentino Wanderers Aktiv 128 / 132 40% 2 26.09.2026 -
Georgi Minoungou Colorado Rapids Aktiv 108 / 116 40% 2 25.09.2026 -
Claudio Salto Almagro Aktiv 116 / 109 40% 1 23.09.2026 -
Jorge Obregón Deportivo Pasto Aktiv 123 / 111 40% 2 22.09.2026 -
Prince Owusu CF Montreal Aktiv 123 / 115 40% 3 21.09.2026 -
Rafael Santos St. Louis CITY SC Aktiv 121 / 123 40% 1 21.09.2026 -
Akinkunmi Amoo Ismaily Aktiv 122 / 136 40% 1 21.09.2026 -
Jefry Zapata Once Caldas Aktiv 124 / 106 40% 2 19.09.2026 -
André Vidigal ENPPI Aktiv 107 / 115 40% 2 19.09.2026 -
Samuel Anakwe Remo Stars Aktiv 82 / 95 40% 1 19.09.2026 -
Michael Nike Patriotas Aktiv 105 / 86 40% 1 16.09.2026 -
Gopolang Taunyane Wa All Stars Aktiv 83 / 99 40% 2 15.09.2026 -
Eliás Montiel Pachuca Aktiv 128 / 127 40% 2 15.09.2026 -
Ayoub Jabbari FC Cincinnati Aktiv 112 / 99 40% 1 15.09.2026 -
Cristian Barros Cerro Aktiv 93 / 88 40% 1 13.09.2026 -
Ramiro Ruiz Rodríguez Atlético Tucumán Aktiv 108 / 117 40% 2 11.09.2026 -
Ruyery Blanco Alianza Petrolera Aktiv 99 / 123 40% 1 11.09.2026 -
Marco Miori Alvarado Aktiv 97 / 109 40% 1 10.09.2026 -
Andrey Estupiñán Millonarios Aktiv 114 / 131 40% 1 08.09.2026 -
Kyogo Furuhashi LA Galaxy Aktiv 122 / 122 40% 2 07.09.2026 -
Brooklyn Raines New England Revolution Aktiv 107 / 108 40% 1 07.09.2026 -
Siyanda Ndlovu Hearts of Oak Aktiv 111 / 134 40% 1 07.09.2026 -
Teboho Tau Ajax Cape Town Aktiv 107 / 95 40% 1 07.09.2026 -
Kamogelo Sebelebele Orlando Pirates Aktiv 110 / 103 40% 1 07.09.2026 -
Cemran Dansin Orlando Pirates Aktiv 105 / 108 40% 2 05.09.2026 -
Jacob Wright Norwich City Aktiv 118 / 121 40% 1 05.09.2026 -
Luther Phiri SuperSport United Aktiv 111 / 105 40% 1 05.09.2026 -
Fernando Mimbacas Juventud Aktiv 111 / 125 40% 1 02.09.2026 -
Joe Rafferty Rotherham United Aktiv 106 / 102 69% 1 31.08.2026 Befürworten
Clemente Montes Universidad Catolica Aktiv 129 / 104 40% 1 28.08.2026 -
Alexander Díaz Deportivo Riestra Aktiv 112 / 127 40% 1 27.08.2026 -
Tyrese Spicer Orlando City Aktiv 110 / 107 40% 1 26.08.2026 -
Nico López Platense Aktiv 136 / 124 40% 1 26.08.2026 -
Eric Ramírez Unión de Santa Fe Aktiv 125 / 112 40% 1 25.08.2026 -
Maximiliano Gómez Nacional Aktiv 116 / 133 40% 2 24.08.2026 -
Jáder Obrian Santa Fe Aktiv 128 / 112 40% 1 24.08.2026 -
Osvald Søe San Diego Football Club Aktiv 99 / 106 40% 1 24.08.2026 -
Diber Cambindo Leon Aktiv 132 / 132 40% 1 20.08.2026 -
Emiliano Saliadarre Miramar Misiones Aktiv 119 / 115 40% 1 18.08.2026 -
Lucas Carrizo Plaza Colonia Aktiv 122 / 95 40% 1 18.08.2026 -
Agustín Fontana Sparta Prague Aktiv 120 / 119 40% 1 08.08.2026 -
Duk Atlas Aktiv 119 / 104 40% 1 05.08.2026 -
Kamil Conteh Bristol Rovers Aktiv 92 / 90 69% 1 03.08.2026 Befürworten